Harlingen, TX

11:58 AM CDT on April 27, 2017 (GMT -0500)
Valley International

Weather History for KHRL - April, 2014

Change the Weather History Date:

Tuesday, April 29, 2014

  Actual Average Record
Temperature  
Mean Temperature 84 °F 78 °F  
Max Temperature 97 °F 88 °F 102 °F (1937)
Min Temperature 70 °F 68 °F 48 °F (1920)
Degree Days  
Heating Degree Days 0 0  
Month to date heating degree days 12 7  
Since 1 July heating degree days 930 621  
Cooling Degree Days 19 13  
Month to date cooling degree days 291 306  
Year to date cooling degree days 514 601  
Growing Degree Days 32 (Base 50)    
Moisture  
Dew Point 67 °F    
Average Humidity 67    
Maximum Humidity 93    
Minimum Humidity 40    
Precipitation  
Precipitation 0.00 in 0.05 in 2.89 in (1957)
Month to date precipitation 0.17 1.61  
Year to date precipitation 2.95 5.37  
Sea Level Pressure  
Sea Level Pressure 29.67 in    
Wind  
Wind Speed 12 mph (ENE)    
Max Wind Speed 29 mph    
Max Gust Speed 37 mph    
Visibility 8 miles    
Events      
T = Trace of Precipitation, MM = Missing Value Source: NWS Daily Summary

Daily Weather History Graph

Daily Weather History Graph

Search for Another Location

Airport or City:

Trip Planner

Search our weather history database for the weather conditions in past years. The results will help you decide how hot, cold, wet, or windy it might be!

Date:

Astronomy

Apr. 29, 2014 Rise Set
Actual Time 6:54 AM CDT 8:01 PM CDT
Civil Twilight 6:30 AM CDT 8:25 PM CDT
Nautical Twilight 6:01 AM CDT 8:54 PM CDT
Astronomical Twilight 5:32 AM CDT 9:24 PM CDT
Moon 7:13 AM CDT (4/29) 8:41 PM CDT (4/29)
Length of Visible Light 13h 55m
Length of Day
13h 06m
New Moon, 0% of the Moon is Illuminated
Apr 29
New Moon
May 6
First Quarter
May 14
Full
May 21
Last Quarter
May 28
New

Hourly Weather History & Observations

Time (CDT) Temp. Heat Index Dew Point Humidity Pressure Visibility Wind Dir Wind Speed Gust Speed Precip Events Conditions
12:40 AM 69.8 °F - 68.0 °F 94% 29.64 in 3.0 mi Calm Calm - N/A   Scattered Clouds
12:43 AM 69.8 °F - 66.2 °F 88% 29.64 in 1.8 mi SE 3.5 mph - N/A   Mostly Cloudy
12:52 AM 68.0 °F - 66.9 °F 96% 29.64 in 1.5 mi Calm Calm - N/A   Mostly Cloudy
12:55 AM 68.0 °F - 66.2 °F 94% 29.64 in 3.0 mi SE 3.5 mph - N/A   Mostly Cloudy
1:40 AM 73.4 °F - 71.6 °F 94% 29.63 in 5.0 mi SSE 6.9 mph - N/A   Overcast
1:52 AM 73.9 °F - 72.0 °F 93% 29.63 in 5.0 mi SSE 6.9 mph - N/A   Overcast
2:52 AM 73.9 °F - 72.0 °F 93% 29.62 in 6.0 mi SSE 9.2 mph - N/A   Overcast
3:52 AM 73.9 °F - 72.0 °F 93% 29.60 in 7.0 mi SSE 13.8 mph - N/A   Overcast
4:52 AM 73.9 °F - 72.0 °F 93% 29.57 in 9.0 mi SSE 16.1 mph - N/A   Overcast
5:52 AM 75.9 °F - 72.0 °F 87% 29.57 in 9.0 mi South 12.7 mph - N/A   Overcast
6:52 AM 75.9 °F - 72.0 °F 87% 29.61 in 9.0 mi Calm Calm - N/A   Overcast
7:52 AM 78.1 °F - 72.0 °F 81% 29.62 in 7.0 mi Calm Calm - N/A   Overcast
8:52 AM 79.0 °F - 72.0 °F 79% 29.64 in 8.0 mi Calm Calm - N/A   Overcast
9:52 AM 80.6 °F 84.6 °F 71.6 °F 74% 29.65 in 9.0 mi West 4.6 mph - N/A   Overcast
10:52 AM 84.0 °F 89.0 °F 71.1 °F 65% 29.66 in 10.0 mi NW 8.1 mph - N/A   Mostly Cloudy
10:59 AM 84.2 °F 89.6 °F 71.6 °F 66% 29.67 in 10.0 mi North 8.1 mph - N/A   Scattered Clouds
11:52 AM 87.1 °F 92.8 °F 71.1 °F 59% 29.67 in 10.0 mi North 12.7 mph 18.4 mph N/A   Clear
12:52 PM 91.0 °F 96.6 °F 70.0 °F 50% 29.67 in 10.0 mi North 11.5 mph - N/A   Clear
1:52 PM 93.0 °F 95.9 °F 66.0 °F 41% 29.67 in 10.0 mi North 15.0 mph - N/A   Clear
2:52 PM 96.1 °F 101.0 °F 68.0 °F 40% 29.65 in 10.0 mi NNE 12.7 mph 19.6 mph N/A   Clear
3:52 PM 89.6 °F 96.2 °F 71.6 °F 55% 29.65 in 10.0 mi ENE 18.4 mph - N/A   Clear
4:52 PM 89.6 °F 94.7 °F 69.8 °F 52% 29.66 in 10.0 mi ENE 17.3 mph 25.3 mph N/A   Clear
5:52 PM 86.0 °F 87.6 °F 64.9 °F 49% 29.69 in 10.0 mi NE 26.5 mph 33.4 mph N/A   Clear
6:52 PM 82.9 °F 83.3 °F 61.0 °F 47% 29.71 in 10.0 mi ENE 16.1 mph 29.9 mph N/A   Clear
7:52 PM 79.0 °F - 59.0 °F 50% 29.75 in 10.0 mi ENE 15.0 mph 21.9 mph N/A   Clear
8:52 PM 77.0 °F - 55.9 °F 48% 29.79 in 10.0 mi ENE 15.0 mph - N/A   Clear
9:52 PM 75.2 °F - 55.4 °F 50% 29.82 in 10.0 mi NE 11.5 mph - N/A   Clear
10:52 PM 75.0 °F - 54.0 °F 48% 29.85 in 10.0 mi NE 12.7 mph - N/A   Clear
11:52 PM 75.0 °F - 53.1 °F 46% 29.87 in 10.0 mi NE 12.7 mph - N/A   Clear